Location: *
(24.1434°N, 56.8729°E)
Time: 18:48:57
(UTC+00:00)

ATLAS 3B R/B - Pass Details

Date: 09 April 2020
Orbit: 1024 x 1171 km, 63.8° (Epoch: 02 June)

Event Time Altitude Azimuth Distance (km) Brightness Sun altitude
Exits shadow 22:35:06 28° 44° (NE) 1,820 4.3 -42.9°
Drops below altitude 10° 22:38:02 10° 35° (NE) 2,813 5.5 -42.3°
Sets 22:40:39 0° 32° (NNE) 3,765 6.3 -41.9°
